Tracking 25378 objects as of 22-Jan-2022
HD Live streaming from Space Station
objects crossing your sky now

THOR ABLESTAR DEB

Track THOR ABLESTAR DEB now!
10-day predictions


NORAD ID: 121
Int'l Code: 1961-015F
Perigee: 837.4 km
Apogee: 966.3 km
Inclination: 66.7 °
Period: 102.9 minutes
Semi major axis: 7272 km
RCS: 0.26 m2 (medium)
Launch date: June 29, 1961
Source: United States (US)
Launch site: AIR FORCE EASTERN TEST RANGE (AFETR)

Note: This is SATELLITE DEBRIS
aabbcc
Your satellite tracking list
Your tracking list is empty




NASA's NSSDC Master Catalog

Two Line Element Set (TLE):
1 00121U 61015F   22022.54351417 -.00000035  00000-0  29196-4 0  9995
2 00121  66.7478  73.6130 0088619  43.8378 316.9694 13.99726913101470
Source of the keplerian elements: AFSPC